Piney Island, NC

11:39 AM EST on November 20, 2017 (GMT -0500)
Piney Island

Weather History for KNBT - December, 2011

Change the Weather History Date:

Friday, December 30, 2011

  Actual Average (KMRH) Record (KMRH)
Temperature  
Mean Temperature 53 °F -  
Max Temperature 63 °F 57 °F 75 °F (2015)
Min Temperature 43 °F 36 °F 21 °F (1970)
Degree Days  
Heating Degree Days 12    
Growing Degree Days 3 (Base 50)    
Moisture  
Dew Point 40 °F    
Average Humidity 65    
Maximum Humidity 86    
Minimum Humidity 34    
Precipitation  
Precipitation 0.00 in - - ()
Sea Level Pressure  
Sea Level Pressure 30.11 in    
Wind  
Wind Speed 8 mph (SSW)    
Max Wind Speed 18 mph    
Max Gust Speed 23 mph    
Visibility 10 miles    
Events      
Averages and records for this station are not official NWS values.
T = Trace of Precipitation, MM = Missing Value Source: NWS Daily Summary

Daily Weather History Graph

Daily Weather History Graph

Search for Another Location

Airport or City:

Trip Planner

Search our weather history database for the weather conditions in past years. The results will help you decide how hot, cold, wet, or windy it might be!

Date:

Astronomy

Dec. 30, 2011 Rise Set
Actual Time 7:13 AM EST 5:03 PM EST
Civil Twilight 6:45 AM EST 5:31 PM EST
Nautical Twilight 6:13 AM EST 6:03 PM EST
Astronomical Twilight 5:42 AM EST 6:33 PM EST
Moon 10:46 AM EST (12/30) 11:20 PM EST (12/30)
Length of Visible Light 10h 46m
Length of Day
9h 49m
Waxing Crescent, 35% of the Moon is Illuminated
Dec 30
Waxing Crescent
Jan 1
First Quarter
Jan 9
Full
Jan 16
Last Quarter
Jan 23
New

Hourly Weather History & Observations

Time (EST) Temp. Windchill Dew Point Humidity Pressure Visibility Wind Dir Wind Speed Gust Speed Precip Events Conditions
12:56 AM 48.0 °F - 39.0 °F 71% 30.10 in 10.0 mi WSW 6.9 mph - N/A   Clear
1:56 AM 48.0 °F - 37.0 °F 66% 30.11 in 10.0 mi WSW 10.4 mph - N/A   Clear
2:56 AM 45.0 °F 41.2 °F 36.0 °F 71% 30.12 in 10.0 mi SW 6.9 mph - N/A   Clear
3:56 AM 45.0 °F 40.6 °F 36.0 °F 71% 30.12 in 10.0 mi SW 8.1 mph - N/A   Clear
4:56 AM 43.0 °F 40.3 °F 36.0 °F 76% 30.12 in 10.0 mi WSW 4.6 mph - N/A   Clear
5:56 AM 46.0 °F 43.1 °F 37.0 °F 71% 30.13 in 10.0 mi WSW 5.8 mph - N/A   Clear
6:56 AM 45.0 °F 40.6 °F 37.0 °F 74% 30.14 in 10.0 mi SW 8.1 mph - N/A   Clear
7:56 AM 44.1 °F 40.8 °F 36.0 °F 73% 30.16 in 10.0 mi SSW 5.8 mph - N/A   Clear
8:56 AM 48.9 °F - 39.9 °F 71% 30.18 in 10.0 mi SW 6.9 mph - N/A   Clear
9:56 AM 55.0 °F - 39.0 °F 55% 30.19 in 10.0 mi SW 10.4 mph - N/A   Clear
10:56 AM 60.1 °F - 37.0 °F 42% 30.17 in 10.0 mi WSW 6.9 mph - N/A   Clear
11:56 AM 62.1 °F - 37.0 °F 39% 30.13 in 10.0 mi SW 8.1 mph - N/A   Clear
12:56 PM 63.0 °F - 34.0 °F 34% 30.11 in 10.0 mi SSW 16.1 mph - N/A   Clear
1:56 PM 63.0 °F - 35.1 °F 35% 30.09 in 10.0 mi SSW 17.3 mph - N/A   Clear
2:56 PM 63.0 °F - 36.0 °F 37% 30.09 in 10.0 mi SW 18.4 mph 23.0 mph N/A   Clear
3:56 PM 62.1 °F - 41.0 °F 46% 30.08 in 10.0 mi SSW 10.4 mph - N/A   Clear
4:56 PM 57.0 °F - 42.1 °F 57% 30.09 in 10.0 mi South 5.8 mph - N/A   Clear
5:56 PM 55.0 °F - 45.0 °F 69% 30.09 in 10.0 mi South 3.5 mph - N/A   Clear
6:56 PM 48.9 °F - 43.0 °F 80% 30.09 in 10.0 mi South 3.5 mph - N/A   Clear
7:56 PM 48.9 °F - 44.1 °F 83% 30.09 in 10.0 mi South 4.6 mph - N/A   Clear
8:56 PM 50.0 °F - 46.0 °F 86% 30.08 in 10.0 mi South 6.9 mph - N/A   Clear
9:56 PM 48.9 °F - 45.0 °F 86% 30.09 in 10.0 mi Calm Calm - N/A   Clear
10:56 PM 50.0 °F - 46.0 °F 86% 30.07 in 10.0 mi South 3.5 mph - N/A   Clear
11:56 PM 51.1 °F - 46.9 °F 86% 30.06 in 10.0 mi South 5.8 mph - N/A   Mostly Cloudy